Simultaneous Nadir Overpasses (SNOs) Predictions

Prediction of SNOs between GOES-15 and NOAA-19 Satellite Orbit:

Table of predicted SNOs for the next 14.0 days since TLE Epoch: 1/18/2025
Index Date Time (GOES-15) GOES-15 Lat,Lon NOAA-19 Lat,Lon Distance(km) Time Diff (sec)
1 01/18/2025 05:25:52 -0.01, 61.48 -0.34, 62.95 167.86 80
2 01/20/2025 17:44:52 0.00, 61.50 -0.73, 58.42 352.43 80
3 01/21/2025 17:32:20 0.01, 61.52 -0.02, 61.46 6.95 80
4 01/22/2025 17:17:09 0.01, 61.53 0.69, 64.50 338.64 80
5 01/25/2025 05:35:53 -0.01, 61.57 0.35, 60.04 175.58 80
6 01/26/2025 05:26:02 -0.01, 61.59 -0.35, 63.08 169.97 80
7 01/28/2025 17:45:00 -0.00, 61.63 -0.68, 58.55 350.20 80
8 01/29/2025 17:32:27 -0.00, 61.65 -0.01, 61.61 5.42 80
9 01/30/2025 17:17:15 -0.00, 61.68 0.67, 64.66 339.27 80
